When you browse on this site, cookies collect data to enhance your experience and personalize the content and advertising you see.
Visit our Privacy Policy to learn more. By continuing to use the site, you agree to this use of cookies and data.
  • In Österreich
  • Länderverzeichnis
  • Für 7 Tage
  • Wassertemperatur
  • Satellitenkarten
  • Wetterkarte
  • News
  • Widgets
  • user-avatar
    Anmelden

    Stündliche Wetter Washington

    Heute, 13 Dezember, Donnerstag

    Zeit Temperatur Niederschläge Wind Luftdruck Luftfeuchtigkeit
    00:00 +1°C° 0 mm 2 m/S 759 mmHg 90%
    01:00 +1°C° 0 mm 2 m/S 759 mmHg 90%
    02:00 +1°C° 0 mm 2 m/S 759 mmHg 90%
    03:00 +1°C° 0 mm 2 m/S 759 mmHg 89%
    04:00 +2°C° 0 mm 1 m/S 759 mmHg 88%
    05:00 +2°C° 0 mm 1 m/S 760 mmHg 89%
    06:00 +1°C° 0 mm 1 m/S 760 mmHg 89%
    07:00 +1°C° 0 mm 1 m/S 760 mmHg 90%
    08:00 +3°C° 0 mm 1 m/S 761 mmHg 84%
    09:00 +3°C° 0 mm 0 m/S 761 mmHg 79%
    10:00 +4°C° 0 mm 0 m/S 762 mmHg 74%
    11:00 +7°C° 0 mm 1 m/S 762 mmHg 70%
    12:00 +8°C° 0 mm 1 m/S 762 mmHg 67%
    13:00 +9°C° 0 mm 1 m/S 762 mmHg 64%
    14:00 +9°C° 0 mm 1 m/S 762 mmHg 67%
    15:00 +8°C° 0 mm 1 m/S 762 mmHg 71%
    16:00 +8°C° 0 mm 1 m/S 762 mmHg 75%
    17:00 +7°C° 0 mm 1 m/S 762 mmHg 79%
    18:00 +6°C° 0 mm 1 m/S 763 mmHg 82%
    19:00 +4°C° 0 mm 0 m/S 763 mmHg 86%
    20:00 +5°C° 0 mm 1 m/S 764 mmHg 87%
    21:00 +5°C° 0 mm 1 m/S 764 mmHg 87%
    22:00 +5°C° 0 mm 1 m/S 764 mmHg 87%
    23:00 +5°C° 0 mm 1 m/S 764 mmHg 89%

    Morgen, 14 Dezember, Freitag

    Zeit Temperatur Niederschläge Wind Luftdruck Luftfeuchtigkeit
    00:00 +5°C° 0 mm 1 m/S 764 mmHg 90%
    01:00 +4°C° 0 mm 1 m/S 764 mmHg 91%
    02:00 +3°C° 0 mm 0 m/S 764 mmHg 92%
    03:00 +3°C° 0 mm 0 m/S 764 mmHg 93%
    04:00 +3°C° 0 mm 0 m/S 764 mmHg 94%
    05:00 +3°C° 0 mm 0 m/S 764 mmHg 94%
    06:00 +2°C° 0 mm 0 m/S 764 mmHg 94%
    07:00 +2°C° 0 mm 0 m/S 764 mmHg 95%
    08:00 +3°C° 0 mm 0 m/S 764 mmHg 90%
    09:00 +5°C° 0 mm 0 m/S 765 mmHg 86%
    10:00 +6°C° 0 mm 0 m/S 765 mmHg 82%
    11:00 +7°C° 0 mm 0 m/S 764 mmHg 79%
    12:00 +8°C° 0 mm 1 m/S 763 mmHg 75%
    13:00 +9°C° 0 mm 1 m/S 763 mmHg 72%
    14:00 +8°C° 0.4 mm 1 m/S 762 mmHg 77%
    15:00 +7°C° 0.4 mm 0 m/S 762 mmHg 81%
    16:00 +6°C° 0.4 mm 0 m/S 762 mmHg 85%
    17:00 +7°C° 0.9 mm 1 m/S 762 mmHg 88%
    18:00 +7°C° 0.9 mm 1 m/S 762 mmHg 90%
    19:00 +6°C° 0.9 mm 2 m/S 762 mmHg 92%
    20:00 +6°C° 0.5 mm 2 m/S 761 mmHg 92%
    21:00 +6°C° 0.5 mm 2 m/S 761 mmHg 92%
    22:00 +6°C° 0.5 mm 2 m/S 760 mmHg 92%
    23:00 +6°C° 1.4 mm 2 m/S 760 mmHg 92%

    übermorgen, 15 Dezember, Samstag

    Zeit Temperatur Niederschläge Wind Luftdruck Luftfeuchtigkeit
    00:00 +6°C° 1.4 mm 2 m/S 759 mmHg 93%
    01:00 +6°C° 1.4 mm 2 m/S 758 mmHg 94%
    02:00 +6°C° 0.9 mm 2 m/S 758 mmHg 94%
    03:00 +7°C° 0.9 mm 2 m/S 757 mmHg 94%
    04:00 +7°C° 0.9 mm 3 m/S 757 mmHg 95%
    05:00 +7°C° 0.8 mm 3 m/S 756 mmHg 95%
    06:00 +7°C° 0.8 mm 3 m/S 756 mmHg 95%
    07:00 +7°C° 0.8 mm 3 m/S 756 mmHg 96%
    08:00 +8°C° 0.7 mm 3 m/S 756 mmHg 95%
    09:00 +8°C° 0.7 mm 3 m/S 755 mmHg 95%
    10:00 +8°C° 0.7 mm 3 m/S 755 mmHg 95%
    11:00 +9°C° 1.2 mm 3 m/S 754 mmHg 95%
    12:00 +10°C° 1.2 mm 3 m/S 754 mmHg 94%
    13:00 +10°C° 1.2 mm 3 m/S 753 mmHg 94%
    14:00 +10°C° 0.7 mm 3 m/S 753 mmHg 95%
    15:00 +10°C° 0.7 mm 2 m/S 752 mmHg 96%
    16:00 +10°C° 0.7 mm 2 m/S 752 mmHg 97%
    17:00 +10°C° 0.8 mm 2 m/S 752 mmHg 97%
    18:00 +12°C° 0.8 mm 2 m/S 752 mmHg 97%
    19:00 +12°C° 0.8 mm 2 m/S 752 mmHg 97%
    20:00 +12°C° 1.4 mm 2 m/S 752 mmHg 97%
    21:00 +12°C° 1.4 mm 2 m/S 752 mmHg 97%
    22:00 +12°C° 1.4 mm 2 m/S 752 mmHg 97%
    23:00 +12°C° 0.6 mm 2 m/S 752 mmHg 97%

    16 Dezember, Sonntag

    Zeit Temperatur Niederschläge Wind Luftdruck Luftfeuchtigkeit
    00:00 +12°C° 0.6 mm 1 m/S 752 mmHg 98%
    01:00 +12°C° 0.6 mm 1 m/S 751 mmHg 98%
    02:00 +11°C° 0.3 mm 1 m/S 751 mmHg 98%
    03:00 +11°C° 0.3 mm 1 m/S 751 mmHg 98%
    04:00 +11°C° 0.3 mm 1 m/S 751 mmHg 97%
    05:00 +10°C° 0.1 mm 1 m/S 751 mmHg 97%
    06:00 +10°C° 0.1 mm 1 m/S 751 mmHg 97%
    07:00 +10°C° 0.1 mm 1 m/S 751 mmHg 97%
    08:00 +10°C° 0.3 mm 1 m/S 751 mmHg 96%
    09:00 +11°C° 0.3 mm 1 m/S 751 mmHg 95%
    10:00 +11°C° 0.3 mm 1 m/S 751 mmHg 94%
    11:00 +11°C° 0.7 mm 1 m/S 751 mmHg 93%
    12:00 +10°C° 0.7 mm 2 m/S 750 mmHg 92%
    13:00 +10°C° 0.7 mm 2 m/S 750 mmHg 90%
    14:00 +10°C° 0.5 mm 2 m/S 750 mmHg 90%
    15:00 +9°C° 0.5 mm 2 m/S 750 mmHg 90%
    16:00 +9°C° 0.5 mm 2 m/S 750 mmHg 90%
    17:00 +8°C° 0.1 mm 2 m/S 751 mmHg 90%
    18:00 +8°C° 0.1 mm 2 m/S 751 mmHg 90%
    19:00 +7°C° 0.1 mm 2 m/S 751 mmHg 91%
    20:00 +7°C° 0 mm 2 m/S 751 mmHg 91%
    21:00 +7°C° 0 mm 1 m/S 751 mmHg 92%
    22:00 +7°C° 0 mm 1 m/S 751 mmHg 93%
    23:00 +7°C° 0 mm 1 m/S 751 mmHg 92%

    17 Dezember, Montag

    Zeit Temperatur Niederschläge Wind Luftdruck Luftfeuchtigkeit
    00:00 +7°C° 0 mm 1 m/S 751 mmHg 92%
    01:00 +7°C° 0 mm 1 m/S 751 mmHg 91%
    02:00 +7°C° 0 mm 1 m/S 751 mmHg 91%
    03:00 +6°C° 0 mm 2 m/S 750 mmHg 91%
    04:00 +6°C° 0 mm 2 m/S 750 mmHg 91%
    05:00 +6°C° 0 mm 2 m/S 750 mmHg 89%
    06:00 +4°C° 0 mm 3 m/S 750 mmHg 87%
    07:00 +4°C° 0 mm 3 m/S 750 mmHg 85%
    08:00 +5°C° 0 mm 4 m/S 750 mmHg 77%
    09:00 +5°C° 0 mm 4 m/S 750 mmHg 69%
    10:00 +6°C° 0 mm 5 m/S 750 mmHg 61%
    11:00 +5°C° 0 mm 6 m/S 750 mmHg 59%
    12:00 +4°C° 0 mm 6 m/S 750 mmHg 56%
    13:00 +4°C° 0 mm 7 m/S 750 mmHg 54%
    14:00 +3°C° 0 mm 7 m/S 750 mmHg 54%
    15:00 +3°C° 0 mm 7 m/S 750 mmHg 54%
    16:00 +2°C° 0 mm 7 m/S 751 mmHg 54%
    17:00 +1°C° 0 mm 6 m/S 751 mmHg 56%
    18:00 +1°C° 0 mm 6 m/S 752 mmHg 58%
    19:00 -1°C° 0 mm 6 m/S 752 mmHg 59%
    20:00 -1°C° 0 mm 6 m/S 752 mmHg 60%
    21:00 -2°C° 0 mm 6 m/S 753 mmHg 60%
    22:00 -2°C° 0 mm 6 m/S 753 mmHg 60%
    23:00 -2°C° 0 mm 6 m/S 753 mmHg 60%

    18 Dezember, Dienstag

    Zeit Temperatur Niederschläge Wind Luftdruck Luftfeuchtigkeit
    00:00 -2°C° 0 mm 6 m/S 753 mmHg 60%
    01:00 -2°C° 0 mm 6 m/S 753 mmHg 59%
    02:00 -3°C° 0 mm 6 m/S 753 mmHg 59%
    03:00 -3°C° 0 mm 6 m/S 753 mmHg 59%
    04:00 -3°C° 0 mm 6 m/S 753 mmHg 59%
    05:00 -3°C° 0 mm 6 m/S 754 mmHg 58%
    06:00 -3°C° 0 mm 6 m/S 754 mmHg 57%
    07:00 -3°C° 0 mm 6 m/S 755 mmHg 56%
    08:00 -3°C° 0 mm 6 m/S 756 mmHg 53%
    09:00 -2°C° 0 mm 7 m/S 756 mmHg 49%
    10:00 -1°C° 0 mm 7 m/S 756 mmHg 46%
    11:00 -1°C° 0 mm 7 m/S 756 mmHg 44%
    12:00 0°C° 0 mm 7 m/S 756 mmHg 43%
    13:00 +2°C° 0 mm 7 m/S 756 mmHg 41%
    14:00 0°C° 0 mm 7 m/S 756 mmHg 43%
    15:00 +1°C° 0 mm 6 m/S 757 mmHg 45%
    16:00 +1°C° 0 mm 6 m/S 757 mmHg 47%
    17:00 0°C° 0 mm 5 m/S 758 mmHg 51%
    18:00 -1°C° 0 mm 5 m/S 758 mmHg 55%
    19:00 -2°C° 0 mm 5 m/S 759 mmHg 59%
    20:00 -2°C° 0 mm 5 m/S 759 mmHg 60%
    21:00 -4°C° 0 mm 5 m/S 760 mmHg 61%
    22:00 -4°C° 0 mm 5 m/S 760 mmHg 61%
    23:00 -3°C° 0 mm 4 m/S 760 mmHg 62%
    Mehr zeigen